Roanoke, VA

2:52 PM EST on February 14, 2016 (GMT -0500)
Roanoke Regional-Woodrum

Weather History for KROA - August, 2012

Change the Weather History Date:

Thursday, August 30, 2012

  Actual Average Record
Temperature  
Mean Temperature 77 °F 73 °F  
Max Temperature 88 °F 84 °F 102 °F (1932)
Min Temperature 65 °F 63 °F 42 °F (1986)
Degree Days  
Heating Degree Days 0 0  
Month to date heating degree days 0 0  
Since 1 June heating degree days 6 11  
Since 1 July heating degree days 0 0  
Cooling Degree Days 12 9  
Month to date cooling degree days 306 314  
Year to date cooling degree days 1249 1037  
Since 1 June cooling degree days 1047 921  
Growing Degree Days 26 (Base 50)    
Moisture  
Dew Point 64 °F    
Average Humidity 70    
Maximum Humidity 93    
Minimum Humidity 46    
Precipitation  
Precipitation 0.00 in 0.12 in 2.56 in (1940)
Month to date precipitation 3.94 3.44  
Year to date precipitation 24.82 28.01  
Snow  
Snow 0.00 in - - ()
Month to date snowfall T  
Since 1 June snowfall T  
Since 1 July snowfall T  
Snow Depth 0.00 in    
Sea Level Pressure  
Sea Level Pressure 30.10 in    
Wind  
Wind Speed 3 mph (SSE)    
Max Wind Speed 13 mph    
Max Gust Speed 18 mph    
Visibility 10 miles    
Events      
T = Trace of Precipitation, MM = Missing Value Source: NWS Daily Summary

Daily Weather History Graph

Daily Weather History Graph

Search for Another Location

Airport or City:

Trip Planner

Search our weather history database for the weather conditions in past years. The results will help you decide how hot, cold, wet, or windy it might be!

Date:

Astronomy

Aug. 30, 2012 Rise Set
Actual Time 6:49 AM EDT 7:50 PM EDT
Civil Twilight 6:22 AM EDT 8:17 PM EDT
Nautical Twilight 5:50 AM EDT 8:49 PM EDT
Astronomical Twilight 5:17 AM EDT 9:22 PM EDT
Moon 7:05 PM EDT (8/30) 5:48 AM EDT (8/30)
Length of Visible Light 13h 55m
Length of Day
13h 01m
Waxing Gibbous, 99% of the Moon is Illuminated
Aug 30
Waxing Gibbous
Aug 31
Full
Sep 8
Last Quarter
Sep 15
New
Sep 22
First Quarter

Hourly Weather History & Observations

Time (EDT) Temp. Heat Index Dew Point Humidity Pressure Visibility Wind Dir Wind Speed Gust Speed Precip Events Conditions
12:54 AM 71.1 °F - 62.1 °F 73% 30.04 in 10.0 mi Calm Calm - N/A   Partly Cloudy
1:54 AM 71.1 °F - 63.0 °F 75% 30.04 in 10.0 mi Calm Calm - N/A   Partly Cloudy
2:54 AM 68.0 °F - 63.0 °F 84% 30.03 in 10.0 mi Calm Calm - N/A   Clear
3:54 AM 66.9 °F - 62.1 °F 84% 30.04 in 10.0 mi Calm Calm - N/A   Scattered Clouds
4:54 AM 68.0 °F - 63.0 °F 84% 30.05 in 10.0 mi Calm Calm - N/A   Mostly Cloudy
5:54 AM 66.9 °F - 62.1 °F 84% 30.06 in 10.0 mi Calm Calm - N/A   Partly Cloudy
6:54 AM 64.9 °F - 62.1 °F 90% 30.08 in 7.0 mi Calm Calm - N/A   Partly Cloudy
7:54 AM 70.0 °F - 63.0 °F 78% 30.09 in 10.0 mi Calm Calm - N/A   Mostly Cloudy
8:24 AM 69.8 °F - 62.6 °F 78% 30.13 in 10.0 mi North 4.6 mph - N/A   Scattered Clouds
8:54 AM 71.1 °F - 63.0 °F 75% 30.11 in 10.0 mi NE 4.6 mph - N/A   Partly Cloudy
9:11 AM 71.6 °F - 62.6 °F 73% 30.15 in 10.0 mi Variable 3.5 mph - N/A   Mostly Cloudy
9:54 AM 73.9 °F - 63.0 °F 68% 30.13 in 10.0 mi Calm Calm - N/A   Overcast
10:54 AM 77.0 °F - 64.9 °F 66% 30.15 in 10.0 mi Calm Calm - N/A   Scattered Clouds
11:54 AM 80.1 °F 82.1 °F 66.0 °F 62% 30.14 in 10.0 mi Calm Calm - N/A   Partly Cloudy
12:54 PM 82.9 °F 85.0 °F 66.0 °F 56% 30.13 in 10.0 mi Calm Calm - N/A   Partly Cloudy
1:54 PM 84.0 °F 86.3 °F 66.0 °F 55% 30.12 in 10.0 mi Variable 5.8 mph - N/A   Partly Cloudy
2:54 PM 88.0 °F 90.3 °F 66.0 °F 48% 30.10 in 10.0 mi South 10.4 mph - N/A   Scattered Clouds
3:54 PM 87.1 °F 88.9 °F 64.9 °F 48% 30.09 in 10.0 mi SE 9.2 mph - N/A   Scattered Clouds
4:54 PM 87.1 °F 88.3 °F 64.0 °F 46% 30.08 in 10.0 mi South 11.5 mph - N/A   Partly Cloudy
5:54 PM 86.0 °F 87.6 °F 64.9 °F 49% 30.09 in 10.0 mi South 9.2 mph - N/A   Partly Cloudy
6:54 PM 84.0 °F 85.8 °F 64.9 °F 53% 30.09 in 10.0 mi South 6.9 mph - N/A   Partly Cloudy
7:54 PM 81.0 °F 83.0 °F 66.0 °F 60% 30.10 in 10.0 mi South 4.6 mph - N/A   Partly Cloudy
8:54 PM 81.0 °F 83.3 °F 66.9 °F 62% 30.12 in 10.0 mi South 4.6 mph - N/A   Partly Cloudy
9:54 PM 78.1 °F - 66.9 °F 68% 30.14 in 10.0 mi Calm Calm - N/A   Partly Cloudy
10:54 PM 75.9 °F - 66.9 °F 74% 30.14 in 10.0 mi Calm Calm - N/A   Partly Cloudy
11:54 PM 75.0 °F - 66.9 °F 76% 30.14 in 10.0 mi Calm Calm - N/A   Clear